Location: Rumah Sambob
(2.9167°N, 113.9167°E)
Time: 18:32:24
(UTC+00:00)

Ariane H10+ - Pass Details

Date: 06 June 2020
Orbit: 168 x 1626 km, 4.0° (Epoch: 11 July)

Event Time Altitude Azimuth Distance (km) Brightness Sun altitude
Exits shadow 20:33:05 51° 281° (W) 1,064 3.4 -24.0°
Maximum altitude 20:34:41 82° 1° (N) 950 3.4 -23.6°
Drops below altitude 10° 20:43:16 10° 88° (E) 3,446 7.3 -21.7°
Sets 20:47:04 0° 89° (E) 4,714 8.2 -20.8°
